Regional Weather Roundup
Issued by NWS

Home | Current Version | Previous Version | Graphics & Text | Print | Product List | Glossary On
Versions: 1 2 3 4 5 6 7 8 9 10 11 12 13 14 15 16 17 18 19 20 21 22 23 24 25 26 27 28 29 30 31 32 33 34 35 36 37 38 39 40 41 42 43 44 45 46 47 48 49 50
000
ASUS43 KLSX 290859
RWRMO

WEATHER SUMMARY FOR MISSOURI
NATIONAL WEATHER SERVICE SPRINGFIELD MO
400 AM CDT FRI AUG 29 2014

NOTE: "FAIR" INDICATES FEW OR NO CLOUDS BELOW 12,000 FEET WITH NO
       SIGNIFICANT WEATHER AND/OR OBSTRUCTIONS TO VISIBILITY.
       CURRENT SKY AND/OR WEATHER CONDITIONS ARE NOT AVAILABLE FOR
       CHILLICOTHE AND FARMINGTON.

MOZ001>031-035>038-043-044-053-054-291000-
...NORTHERN AND WESTERN MISSOURI...

CITY           SKY/WX    TMP DP  RH WIND       PRES   REMARKS
KANSAS CTY INT PTCLDY    72  64  76 SE10      29.85F
KANSAS C DTWN  CLEAR     77  63  61 S7        29.84F
LEE`S SUMMIT   CLEAR     74  63  68 S9        29.87F
ST JOSEPH      PTCLDY    72  65  78 S6        29.83F
KIRKSVILLE     PTCLDY    72  70  93 S9        29.90F FOG

$$
MOZ066>068-077>081-088>096-101>105-291000-
...SOUTHWEST MISSOURI...

CITY           SKY/WX    TMP DP  RH WIND       PRES   REMARKS
SPRINGFIELD    CLEAR     72  62  71 SE10      29.93S
JOPLIN         MOCLDY    76  64  66 S8        29.88F

$$
MOZ032>034-039>042-045>050-055>058-069>072-291000-
...CENTRAL MISSOURI...

CITY           SKY/WX    TMP DP  RH WIND       PRES   REMARKS
COLUMBIA       CLEAR     71  66  84 SE9       29.92F
JEFFERSON CITY CLEAR     74  65  73 E3        29.91F
ROLLA          CLEAR     73  64  73 S9        29.94S
SEDALIA        CLEAR     70  62  76 S7        29.90F
OSAGE BEACH    CLEAR     72  63  73 S3        29.93S

$$
MOZ051-052-059>065-291000-
...EAST CENTRAL MISSOURI...

CITY           SKY/WX    TMP DP  RH WIND       PRES   REMARKS
ST LOUIS INTL  PTCLDY    76  70  82 SE9       29.95F
SPIRIT OF STL  CLEAR     71  70  96 CALM      29.94F FOG
ST CHARLES     PTCLDY    72  71  97 E5        29.94F FOG

$$
MOZ072>076-082>087-097>100-106>115-291000-
...SOUTH CENTRAL AND SOUTHEAST MISSOURI...

CITY           SKY/WX    TMP DP  RH WIND       PRES   REMARKS
CAPE GIRARDEAU CLEAR     69  67  93 CALM      29.95F FOG
FARMINGTON     CLEAR     70  66  88 CALM      29.99F
POPLAR BLUFF   PTCLDY    71  67  87 NE3       29.93F FOG
WEST PLAINS    CLEAR     69  63  81 CALM      29.98F

$$



USA.gov is the U.S. government's official web portal to all federal, state and local government web resources and services.